DW3068 Weather Reports


time (UTC)temp
C
wind
direction
speed
KPH
gust
KPH
rain 1hr
cm
rain 24hr
cm
rain mn
cm
humidity
%
barometer
mb
20260507160329 18 203 4.8 12.9 0.00 0.30 0.05 65 1018.7
20260507155824 18 184 6.4 14.5 0.00 0.30 0.05 64 1019.0
20260507155318 19 230 4.8 11.3 0.00 0.30 0.05 63 1019.0
20260507154843 19 252 4.8 9.7 0.00 0.30 0.05 63 1019.0
20260507154334 18 158 3.2 8.0 0.00 0.30 0.05 64 1018.9
20260507153850 18 222 3.2 11.3 0.00 0.30 0.05 64 1019.0
20260507153313 18 231 4.8 11.3 0.00 0.30 0.05 64 1019.1
20260507152828 17 213 4.8 14.5 0.00 0.30 0.05 66 1019.0
20260507152403 17 244 6.4 14.5 0.00 0.30 0.05 65 1019.0
20260507151827 18 225 4.8 11.3 0.00 0.30 0.05 66 1019.0
20260507151319 18 208 3.2 16.1 0.00 0.30 0.05 66 1018.9
20260507150851 18 225 8.0 16.1 0.00 0.30 0.05 65 1019.0
20260507150344 18 233 6.4 11.3 0.00 0.30 0.05 64 1019.0
20260507145828 18 236 3.2 12.9 0.00 0.30 0.05 65 1019.0
20260507145322 18 211 6.4 11.3 0.00 0.30 0.05 65 1019.1
20260507144828 18 155 1.6 16.1 0.00 0.30 0.05 66 1019.0
20260507144314 18 194 6.4 12.9 0.00 0.30 0.05 65 1019.1
20260507143829 18 148 3.2 12.9 0.00 0.30 0.05 65 1019.1
20260507143344 18 190 1.6 12.9 0.00 0.30 0.05 65 1019.1
20260507142838 18 227 4.8 12.9 0.00 0.30 0.05 64 1019.1
20260507142345 18 252 6.4 12.9 0.00 0.30 0.05 64 1019.2
20260507141817 18 218 1.6 16.1 0.00 0.30 0.05 67 1019.1
20260507141322 18 155 8.0 16.1 0.00 0.30 0.05 66 1019.3
20260507140837 18 190 3.2 9.7 0.00 0.30 0.05 67 1019.3
20260507140347 17 205 6.4 14.5 0.00 0.30 0.05 67 1019.3
20260507135840 17 215 4.8 16.1 0.00 0.30 0.05 68 1019.3
20260507135331 17 207 8.0 19.3 0.00 0.30 0.05 67 1019.4
20260507134838 17 232 6.4 19.3 0.00 0.30 0.05 68 1019.4
20260507134319 17 211 3.2 16.1 0.00 0.30 0.05 68 1019.3
20260507133832 17 269 6.4 24.1 0.00 0.30 0.05 69 1019.3
20260507133318 17 233 8.0 24.1 0.00 0.30 0.05 68 1019.2
20260507132830 17 225 6.4 14.5 0.00 0.30 0.05 68 1019.3
20260507132314 17 88 3.2 17.7 0.00 0.30 0.05 69 1019.4
20260507131831 17 137 9.7 17.7 0.00 0.30 0.05 69 1019.5
20260507131325 16 219 8.0 12.9 0.00 0.30 0.05 69 1019.4
20260507130829 16 248 4.8 20.9 0.00 0.30 0.05 71 1019.4
20260507130323 16 156 8.0 20.9 0.00 0.30 0.05 71 1019.5
20260507125815 16 190 3.2 9.7 0.00 0.30 0.05 72 1019.7
20260507125347 15 193 3.2 11.3 0.00 0.30 0.05 73 1019.6
20260507124833 15 234 6.4 9.7 0.10 0.30 0.05 73 1019.7
20260507124319 15 230 3.2 14.5 0.10 0.30 0.05 75 1019.8
20260507123831 15 219 3.2 14.5 0.10 0.30 0.05 75 1019.9
20260507123336 15 153 4.8 14.5 0.10 0.30 0.05 76 1019.8
20260507122826 15 104 3.2 8.0 0.10 0.30 0.05 76 1019.9
20260507122320 15 213 3.2 8.0 0.10 0.30 0.05 76 1020.0
20260507121836 15 209 3.2 6.4 0.10 0.30 0.05 76 1020.0
20260507121321 15 119 1.6 4.8 0.10 0.30 0.05 77 1020.1
20260507120835 15 113 1.6 6.4 0.10 0.30 0.05 77 1020.1
20260507120320 15 111 3.2 4.8 0.10 0.30 0.05 77 1020.2
20260507115832 15 105 1.6 4.8 0.10 0.30 0.05 77 1020.3
20260507115319 15 149 1.6 6.4 0.10 0.30 0.05 77 1020.3
20260507114825 15 190 1.6 6.4 0.00 0.20 0.05 77 1020.3
20260507114320 15 117 1.6 9.7 0.00 0.20 0.05 75 1020.2
20260507113836 15 216 3.2 12.9 0.00 0.20 0.05 74 1020.3
20260507113317 14 221 6.4 12.9 0.00 0.20 0.05 75 1020.4
20260507112850 15 225 3.2 6.4 0.00 0.20 0.05 75 1020.3
20260507112344 15 157 0.0 6.4 0.00 0.20 0.05 76 1020.4
20260507111855 15 157 1.6 8.0 0.00 0.20 0.05 77 1020.4
20260507111319 15 150 1.6 8.0 0.00 0.20 0.05 77 1020.5
20260507110834 15 109 1.6 6.4 0.00 0.20 0.05 76 1020.6
20260507110320 15 136 1.6 4.8 0.00 0.20 0.05 76 1020.7
20260507105814 14 111 3.2 4.8 0.00 0.20 0.05 76 1020.7
20260507105327 14 142 1.6 8.0 0.00 0.20 0.05 76 1020.8
20260507104832 14 254 3.2 8.0 0.00 0.20 0.05 76 1020.9
20260507104320 14 221 1.6 9.7 0.00 0.20 0.05 75 1020.8
20260507103833 15 206 4.8 9.7 0.00 0.20 0.05 74 1020.9
20260507103349 15 240 4.8 9.7 0.00 0.20 0.05 74 1020.9
20260507102828 15 249 1.6 9.7 0.00 0.20 0.05 74 1020.9
20260507102321 15 250 4.8 9.7 0.00 0.20 0.05 73 1021.0
20260507101837 15 240 3.2 14.5 0.00 0.20 0.05 74 1020.9
20260507101344 14 200 3.2 14.5 0.00 0.20 0.05 74 1021.0
20260507100818 14 178 3.2 12.9 0.00 0.20 0.05 73 1021.0
20260507100324 15 158 4.8 12.9 0.00 0.20 0.05 74 1021.1
20260507095835 14 220 3.2 11.3 0.00 0.20 0.05 73 1021.1
20260507095330 14 179 4.8 11.3 0.00 0.20 0.05 74 1021.1
20260507094816 14 245 3.2 9.7 0.00 0.20 0.05 74 1021.2
20260507094331 14 251 3.2 9.7 0.00 0.20 0.05 74 1021.2
20260507093815 14 229 1.6 9.7 0.00 0.20 0.05 75 1021.3
20260507093331 13 211 4.8 9.7 0.00 0.20 0.05 75 1021.2
20260507092817 13 211 3.2 9.7 0.00 0.20 0.05 74 1021.3
20260507092331 13 175 6.4 9.7 0.00 0.20 0.05 73 1021.3
20260507091847 14 225 3.2 11.3 0.00 0.20 0.05 74 1021.2
20260507091333 14 215 3.2 16.1 0.00 0.20 0.05 73 1021.2
20260507090827 13 202 3.2 16.1 0.00 0.20 0.05 73 1021.3
20260507090333 14 204 4.8 9.7 0.00 0.20 0.05 73 1021.2
20260507085826 13 234 3.2 12.9 0.00 0.20 0.05 73 1021.2
20260507085321 13 228 4.8 12.9 0.00 0.20 0.05 72 1021.2
20260507084818 14 231 3.2 8.0 0.00 0.20 0.05 74 1021.1
20260507084333 13 232 1.6 9.7 0.00 0.20 0.05 74 1021.1
20260507083828 14 219 3.2 6.4 0.00 0.20 0.05 74 1021.1
20260507083314 13 215 3.2 9.7 0.00 0.20 0.05 73 1021.1
20260507082829 13 224 3.2 9.7 0.00 0.20 0.05 72 1021.0
20260507082359 14 226 1.6 8.0 0.00 0.20 0.05 73 1021.0
20260507081822 14 227 4.8 11.3 0.00 0.20 0.05 72 1021.0
20260507081316 14 225 1.6 4.8 0.00 0.20 0.05 73 1021.1
20260507080832 14 216 1.6 6.4 0.00 0.20 0.05 73 1021.1
20260507080333 14 221 3.2 6.4 0.00 0.20 0.05 72 1021.0
20260507075848 14 227 1.6 6.4 0.00 0.20 0.05 72 1021.0
20260507075342 13 156 0.0 6.4 0.00 0.20 0.05 74 1021.0
20260507074816 13 155 3.2 9.7 0.00 0.20 0.05 73 1021.0
20260507074330 13 215 3.2 8.0 0.00 0.20 0.05 74 1021.0
20260507073815 13 192 1.6 6.4 0.00 0.20 0.05 73 1021.1
20260507073402 13 232 1.6 6.4 0.00 0.20 0.05 74 1021.0
20260507072844 13 204 3.2 6.4 0.00 0.20 0.05 73 1021.1
20260507072318 13 201 3.2 9.7 0.00 0.20 0.05 73 1021.1
20260507071824 13 229 3.2 11.3 0.00 0.20 0.05 74 1021.1
20260507071337 13 205 1.6 11.3 0.00 0.20 0.05 74 1021.2
20260507070826 13 232 6.4 9.7 0.10 0.20 0.05 72 1021.1
20260507070333 13 229 4.8 8.0 0.10 0.20 0.05 73 1021.1
20260507065827 13 190 3.2 8.0 0.10 0.20 0.05 73 1021.2
20260507065341 12 217 1.6 8.0 0.10 0.20 0.05 72 1021.1
20260507064847 12 199 1.6 8.0 0.10 0.20 0.05 73 1021.2
20260507064338 12 220 1.6 6.4 0.10 0.20 0.05 73 1021.1
20260507063820 12 204 1.6 8.0 0.20 0.20 0.05 72 1021.1
20260507063314 12 206 3.2 14.5 0.20 0.20 0.05 73 1021.1
20260507062818 12 227 1.6 8.0 0.20 0.20 0.05 74 1021.0
20260507062352 12 211 1.6 8.0 0.20 0.20 0.05 75 1021.0
20260507061825 12 194 3.2 8.0 0.20 0.20 0.05 75 1021.0
20260507061340 12 176 3.2 6.4 0.20 0.20 0.05 75 1021.0
20260507060830 12 221 1.6 6.4 0.10 0.10 0.03 76 1021.1
20260507060400 13 216 3.2 6.4 0.10 0.10 0.03 75 1021.0
20260507055819 13 211 3.2 6.4 0.10 0.10 0.03 75 1021.0
20260507055333 13 219 1.6 4.8 0.10 0.10 0.03 73 1020.8
20260507054839 13 219 0.0 1.6 0.10 0.10 0.03 73 1020.7
20260507054333 13 219 0.0 4.8 0.10 0.10 0.03 73 1020.7
20260507053847 13 219 0.0 8.0 0.00 0.00 0.00 73 1020.6
20260507053341 13 226 1.6 8.0 0.00 0.00 0.00 73 1020.5
20260507052823 13 236 1.6 4.8 0.00 0.00 0.00 71 1020.4
20260507052315 13 247 1.6 8.0 0.00 0.00 0.00 71 1020.2
20260507051829 13 215 1.6 8.0 0.00 0.00 0.00 72 1020.2
20260507051344 13 227 3.2 6.4 0.00 0.00 0.00 69 1020.2
20260507050855 14 270 1.6 6.4 0.00 0.00 0.00 72 1020.1
20260507050320 14 298 3.2 6.4 0.00 0.00 0.00 69 1020.1
20260507045833 14 228 1.6 8.0 0.00 0.00 0.00 69 1019.9
20260507045316 14 222 3.2 8.0 0.00 0.00 0.00 64 1019.7
20260507044842 14 223 1.6 6.4 0.00 0.00 0.00 65 1019.7
20260507044336 14 217 1.6 6.4 0.00 0.00 0.00 65 1019.5
20260507043829 14 207 1.6 4.8 0.00 0.00 0.00 65 1019.5
20260507043315 14 206 0.0 4.8 0.00 0.00 0.00 65 1019.4
20260507042830 14 196 1.6 4.8 0.00 0.00 0.00 66 1019.4
20260507042314 14 170 0.0 1.6 0.00 0.00 0.00 67 1019.3
20260507041848 14 170 0.0 1.6 0.00 0.00 0.00 67 1019.3
20260507041342 14 170 0.0 1.6 0.00 0.00 0.00 66 1019.2
20260507040834 14 170 0.0 3.2 0.00 0.00 0.00 66 1019.2
20260507040320 14 170 1.6 3.2 0.00 0.00 0.00 65 1019.2
20260507035813 14 162 1.6 3.2 0.00 0.00 0.00 64 1019.1
20260507035317 13 157 0.0 4.8 0.00 0.00 0.00 65 1019.2
20260507034818 13 157 0.0 4.8 0.00 0.00 0.00 65 1019.0
20260507034332 13 74 0.0 1.6 0.00 0.00 0.00 65 1019.1
20260507033818 13 74 0.0 1.6 0.00 0.00 0.00 66 1019.1
20260507033352 13 74 0.0 3.2 0.00 0.00 0.00 68 1019.0
20260507032845 13 74 1.6 3.2 0.00 0.00 0.00 70 1019.0
20260507032320 12 73 1.6 3.2 0.00 0.00 0.00 71 1019.1
20260507031823 13 73 0.0 3.2 0.00 0.00 0.00 72 1019.0
20260507031318 13 73 0.0 3.2 0.00 0.00 0.00 71 1018.9
20260507030823 13 73 0.0 1.6 0.00 0.00 0.00 72 1019.0
20260507030316 13 73 0.0 1.6 0.00 0.00 0.00 71 1019.0
20260507025822 13 73 0.0 1.6 0.00 0.00 0.00 70 1019.0
20260507025315 13 73 0.0 3.2 0.00 0.00 0.00 70 1018.9
20260507024820 13 73 0.0 3.2 0.00 0.00 0.00 69 1018.9
20260507024331 13 73 0.0 3.2 0.00 0.00 0.00 67 1018.8
20260507023816 13 73 0.0 3.2 0.00 0.00 0.00 66 1018.6
20260507023328 13 72 0.0 4.8 0.00 0.00 0.00 68 1018.6
20260507022823 13 93 0.0 4.8 0.00 0.00 0.00 68 1018.6
20260507022326 13 93 0.0 3.2 0.00 0.00 0.00 68 1018.6
20260507021819 13 93 0.0 3.2 0.00 0.00 0.00 69 1018.6
20260507021324 13 93 1.6 1.6 0.00 0.00 0.00 70 1018.6
20260507020819 13 93 0.0 3.2 0.00 0.00 0.00 70 1018.7
20260507020335 13 93 1.6 3.2 0.00 0.00 0.00 70 1018.7
20260507015821 13 93 1.6 3.2 0.00 0.00 0.00 69 1018.7
20260507015337 13 93 0.0 3.2 0.00 0.00 0.00 68 1018.6
20260507014815 13 93 1.6 3.2 0.00 0.00 0.00 66 1018.5
20260507014330 13 95 0.0 1.6 0.00 0.00 0.00 65 1018.5
20260507013816 13 95 0.0 1.6 0.00 0.00 0.00 66 1018.5
20260507013330 13 95 0.0 1.6 0.00 0.00 0.00 64 1018.4
20260507012825 13 95 0.0 1.6 0.00 0.00 0.00 65 1018.4
20260507012329 13 95 0.0 1.6 0.00 0.00 0.00 65 1018.3
20260507011824 13 95 0.0 3.2 0.00 0.00 0.00 65 1018.5
20260507011338 13 95 1.6 3.2 0.00 0.00 0.00 67 1018.4
20260507010844 13 95 0.0 3.2 0.00 0.00 0.00 67 1018.4
20260507010318 13 95 1.6 3.2 0.00 0.00 0.00 67 1018.4
20260507005824 13 95 0.0 4.8 0.00 0.00 0.00 68 1018.2
20260507005337 13 95 1.6 4.8 0.00 0.00 0.00 68 1018.2
20260507004818 13 94 0.0 1.6 0.00 0.00 0.00 69 1018.4
20260507004330 13 94 0.0 3.2 0.00 0.00 0.00 69 1018.4
20260507003844 13 94 1.6 3.2 0.00 0.00 0.00 69 1018.4
20260507003338 13 94 1.6 4.8 0.00 0.00 0.00 69 1018.3
20260507002823 13 94 1.6 4.8 0.00 0.00 0.00 69 1018.2
20260507002337 13 124 1.6 3.2 0.00 0.00 0.00 69 1018.2
20260507001822 13 125 0.0 3.2 0.00 0.00 0.00 69 1018.2
20260507001337 13 125 1.6 3.2 0.00 0.00 0.00 69 1018.2
20260507000831 13 125 0.0 6.4 0.00 0.00 0.00 69 1018.1
20260507000316 13 125 1.6 6.4 0.00 0.00 0.00 69 1018.1
20260506235832 13 136 3.2 4.8 0.00 0.00 0.00 69 1018.2
20260506235317 13 176 1.6 4.8 0.00 0.00 0.00 69 1018.2
20260506234853 13 178 0.0 0.0 0.00 0.00 0.00 69 1018.2
20260506234316 13 178 0.0 0.0 0.00 0.00 0.00 69 1018.2
20260506233831 13 178 0.0 0.0 0.00 0.00 0.00 69 1018.2
20260506233318 13 178 0.0 3.2 0.00 0.00 0.00 70 1018.1
20260506232829 13 178 1.6 3.2 0.00 0.00 0.00 70 1018.2
20260506232324 13 211 1.6 3.2 0.00 0.00 0.00 71 1018.2
20260506231857 13 212 0.0 1.6 0.00 0.00 0.00 70 1018.2
20260506231321 13 212 0.0 3.2 0.00 0.00 0.00 69 1018.3
20260506230834 13 212 0.0 3.2 0.00 0.00 0.00 68 1018.3
20260506230340 14 211 0.0 3.2 0.00 0.00 0.00 67 1018.2
20260506225831 14 211 1.6 3.2 0.00 0.00 0.00 67 1018.2
20260506225327 13 211 0.0 1.6 0.00 0.00 0.00 67 1018.1
20260506224825 13 211 0.0 0.0 0.00 0.00 0.00 68 1018.1
20260506224318 14 211 0.0 0.0 0.00 0.00 0.00 68 1018.2
20260506223831 14 211 0.0 1.6 0.00 0.00 0.00 67 1018.2
20260506223341 14 211 0.0 3.2 0.00 0.00 0.00 67 1018.2
20260506222846 14 211 0.0 3.2 0.00 0.00 0.00 66 1018.1
20260506222319 14 211 1.6 3.2 0.00 0.00 0.00 66 1018.1
20260506221833 14 211 0.0 3.2 0.00 0.00 0.00 67 1018.1
20260506221314 14 211 0.0 1.6 0.00 0.00 0.00 66 1018.1
20260506220843 14 211 0.0 1.6 0.00 0.00 0.00 66 1018.1
20260506220317 15 211 0.0 4.8 0.00 0.00 0.00 66 1018.1
20260506215821 14 212 1.6 8.0 0.00 0.00 0.00 66 1018.2
20260506215316 14 189 3.2 8.0 0.00 0.00 0.00 66 1018.2
20260506214823 14 194 0.0 1.6 0.00 0.00 0.00 67 1018.1
20260506214328 14 195 0.0 3.2 0.00 0.00 0.00 67 1018.2
20260506213821 14 195 0.0 3.2 0.00 0.00 0.00 66 1018.2
20260506213335 15 175 0.0 3.2 0.00 0.00 0.00 65 1018.2
20260506212850 15 173 0.0 1.6 0.00 0.00 0.00 64 1018.0
20260506212333 15 173 0.0 1.6 0.00 0.00 0.00 64 1018.0
20260506211826 15 173 0.0 1.6 0.00 0.00 0.00 64 1018.1
20260506211342 15 173 0.0 1.6 0.00 0.00 0.00 64 1018.1
20260506210836 15 173 0.0 0.0 0.00 0.00 0.00 64 1018.0
20260506210320 15 173 0.0 3.2 0.00 0.00 0.00 64 1018.1
20260506205830 15 182 0.0 1.6 0.00 0.00 0.00 65 1018.1
20260506205345 14 182 0.0 1.6 0.00 0.00 0.00 65 1018.2
20260506204831 14 182 1.6 1.6 0.00 0.00 0.00 66 1018.3
20260506204317 15 182 0.0 0.0 0.00 0.00 0.00 65 1018.1
20260506203832 15 182 0.0 0.0 0.00 0.00 0.00 65 1018.0
20260506203317 15 182 0.0 1.6 0.00 0.00 0.00 65 1018.0
20260506202832 15 182 0.0 1.6 0.00 0.00 0.00 64 1018.2
20260506202317 15 182 0.0 0.0 0.00 0.00 0.00 64 1018.1
20260506201834 15 182 0.0 0.0 0.00 0.00 0.00 64 1018.2
20260506201319 15 182 0.0 1.6 0.00 0.00 0.00 64 1018.3
20260506200854 15 182 0.0 1.6 0.00 0.00 0.00 64 1018.2
20260506200326 15 182 0.0 0.0 0.00 0.00 0.00 64 1018.2
20260506195832 15 182 0.0 0.0 0.00 0.00 0.00 64 1018.2
20260506195324 15 182 0.0 0.0 0.00 0.00 0.00 63 1018.2
20260506194852 15 182 0.0 1.6 0.00 0.00 0.00 63 1018.2
20260506194316 15 182 0.0 1.6 0.00 0.00 0.00 62 1018.2
20260506193831 16 182 0.0 0.0 0.00 0.00 0.00 61 1018.1
20260506193324 16 182 0.0 0.0 0.00 0.00 0.00 60 1018.2
20260506192833 16 182 0.0 0.0 0.00 0.00 0.00 60 1018.2
20260506192319 16 182 0.0 3.2 0.00 0.00 0.00 59 1018.2
20260506191855 16 182 0.0 3.2 0.00 0.00 0.00 59 1018.2
20260506191321 16 288 0.0 3.2 0.00 0.00 0.00 58 1018.2
20260506190816 16 301 1.6 3.2 0.00 0.00 0.00 58 1018.1
20260506190331 16 301 0.0 3.2 0.00 0.00 0.00 58 1018.1
20260506185816 16 301 0.0 4.8 0.00 0.00 0.00 58 1018.1
20260506185329 16 301 1.6 4.8 0.00 0.00 0.00 57 1018.0
20260506184815 16 298 1.6 8.0 0.00 0.00 0.00 57 1017.8
20260506184329 16 327 4.8 8.0 0.00 0.00 0.00 57 1017.8
20260506183834 16 30 0.0 6.4 0.00 0.00 0.00 56 1017.7
20260506183330 17 29 1.6 6.4 0.00 0.00 0.00 56 1017.6
20260506182815 17 321 1.6 6.4 0.00 0.00 0.00 55 1017.6
20260506182331 17 277 1.6 4.8 0.00 0.00 0.00 55 1017.6
20260506181845 17 252 3.2 8.0 0.00 0.00 0.00 55 1017.6
20260506181336 17 217 0.0 8.0 0.00 0.00 0.00 54 1017.5
20260506180823 17 220 1.6 4.8 0.00 0.00 0.00 54 1017.4
20260506180332 17 66 3.2 4.8 0.00 0.00 0.00 54 1017.3
20260506175817 17 69 1.6 4.8 0.00 0.00 0.00 53 1017.3
20260506175352 17 117 0.0 6.4 0.00 0.00 0.00 53 1017.3
20260506174819 17 198 0.0 3.2 0.00 0.00 0.00 52 1017.3
20260506174324 17 200 1.6 4.8 0.00 0.00 0.00 52 1017.1
20260506173838 17 200 1.6 4.8 0.00 0.00 0.00 52 1017.1
20260506173353 17 247 0.0 6.4 0.00 0.00 0.00 52 1017.0
20260506172847 17 246 1.6 6.4 0.00 0.00 0.00 51 1017.0
20260506172341 17 303 0.0 4.8 0.00 0.00 0.00 51 1017.0
20260506171826 17 301 1.6 12.9 0.00 0.00 0.00 50 1017.0
20260506171340 17 308 3.2 12.9 0.00 0.00 0.00 50 1017.0
20260506170832 18 273 4.8 16.1 0.00 0.00 0.00 48 1016.9
20260506170317 18 282 8.0 16.1 0.00 0.00 0.00 47 1016.9
20260506165832 18 182 4.8 14.5 0.00 0.00 0.00 46 1016.9
20260506165318 19 290 3.2 12.9 0.00 0.00 0.00 46 1016.8
20260506164819 19 290 6.4 22.5 0.00 0.00 0.00 46 1016.8
20260506164334 19 286 3.2 22.5 0.00 0.00 0.00 46 1016.8
20260506163820 20 244 4.8 14.5 0.00 0.00 0.00 46 1016.6
20260506163332 20 252 4.8 14.5 0.00 0.00 0.00 46 1016.6
20260506162849 20 211 6.4 20.9 0.00 0.00 0.00 46 1016.5
20260506162321 21 147 8.0 20.9 0.00 0.00 0.00 45 1016.6
20260506161827 21 225 6.4 17.7 0.00 0.00 0.00 45 1016.5
20260506161322 21 229 4.8 19.3 0.00 0.00 0.00 46 1016.4
20260506160857 21 277 8.0 19.3 0.00 0.00 0.00 46 1016.3